| time (UTC) | temp F | wind direction | speed knots | gust knots | rain 1hr in | rain 24hr in | rain mn in | humidity % | barometer mb |
| 20260506002543 | 60 | 132 | 0.0 | 4.3 | 0.00 | 0.00 | 0.00 | 49 | 1015.6 |
| 20260506002040 | 60 | 92 | 0.0 | 1.7 | 0.00 | 0.00 | 0.00 | 50 | 1015.4 |
| 20260506001536 | 60 | 100 | 0.9 | 1.7 | 0.00 | 0.00 | 0.00 | 49 | 1015.4 |
| 20260506001033 | 59 | 84 | 0.9 | 2.6 | 0.00 | 0.00 | 0.00 | 51 | 1015.4 |
| 20260506000531 | 59 | 103 | 0.9 | 4.3 | 0.00 | 0.00 | 0.00 | 50 | 1015.4 |
| 20260506000028 | 59 | 60 | 0.0 | 2.6 | 0.00 | 0.00 | 0.00 | 50 | 1015.5 |
| 20260505235521 | 60 | 49 | 2.6 | 4.3 | 0.00 | 0.00 | 0.00 | 49 | 1015.5 |
| 20260505235017 | 61 | 74 | 0.9 | 4.3 | 0.00 | 0.00 | 0.00 | 48 | 1015.3 |
| 20260505234514 | 64 | 65 | 0.0 | 1.7 | 0.00 | 0.00 | 0.00 | 45 | 1015.3 |
| 20260505234011 | 62 | 340 | 0.9 | 4.3 | 0.00 | 0.00 | 0.00 | 48 | 1015.6 |
| 20260505233508 | 61 | 77 | 0.9 | 2.6 | 0.00 | 0.00 | 0.00 | 50 | 1015.4 |
| 20260505233006 | 60 | 84 | 0.0 | 2.6 | 0.00 | 0.00 | 0.00 | 51 | 1015.5 |
| 20260505232503 | 60 | 120 | 0.9 | 8.7 | 0.00 | 0.00 | 0.00 | 51 | 1015.4 |
| 20260505232001 | 61 | 172 | 2.6 | 5.2 | 0.00 | 0.00 | 0.00 | 50 | 1015.5 |
| 20260505231457 | 63 | 124 | 2.6 | 7.0 | 0.00 | 0.00 | 0.00 | 51 | 1015.8 |
| 20260505230956 | 62 | 183 | 1.7 | 2.6 | 0.00 | 0.00 | 0.00 | 47 | 1016.0 |
| 20260505230453 | 62 | 315 | 0.0 | 1.7 | 0.00 | 0.00 | 0.00 | 49 | 1016.0 |
| 20260505225949 | 61 | 189 | 1.7 | 4.3 | 0.00 | 0.00 | 0.00 | 50 | 1015.8 |
| 20260505225446 | 59 | 45 | 1.7 | 2.6 | 0.00 | 0.00 | 0.00 | 54 | 1015.8 |
| 20260505224942 | 59 | 98 | 3.5 | 7.0 | 0.00 | 0.00 | 0.00 | 57 | 1016.0 |
| 20260505224439 | 59 | 50 | 0.9 | 9.6 | 0.00 | 0.00 | 0.00 | 59 | 1015.8 |
| 20260505223937 | 59 | 79 | 2.6 | 5.2 | 0.00 | 0.00 | 0.00 | 61 | 1015.8 |
| 20260505223433 | 60 | 104 | 4.3 | 5.2 | 0.00 | 0.00 | 0.00 | 55 | 1016.2 |
| 20260505222930 | 59 | 125 | 2.6 | 4.3 | 0.00 | 0.00 | 0.00 | 63 | 1016.1 |
| 20260505222426 | 57 | 181 | 0.0 | 2.6 | 0.00 | 0.00 | 0.00 | 70 | 1016.7 |
| 20260505221922 | 56 | 127 | 0.0 | 4.3 | 0.00 | 0.00 | 0.00 | 75 | 1016.4 |
| 20260505221420 | 56 | 79 | 0.9 | 1.7 | 0.00 | 0.00 | 0.00 | 75 | 1016.4 |
| 20260505220917 | 55 | 211 | 4.3 | 7.0 | 0.00 | 0.00 | 0.00 | 75 | 1016.3 |
| 20260505220414 | 54 | 168 | 6.1 | 11.3 | 0.00 | 0.00 | 0.00 | 74 | 1016.8 |
| 20260505215911 | 55 | 155 | 0.9 | 5.2 | 0.00 | 0.00 | 0.00 | 76 | 1017.0 |
| 20260505215409 | 55 | 179 | 3.5 | 11.3 | 0.00 | 0.00 | 0.00 | 69 | 1016.9 |
| 20260505214907 | 59 | 38 | 0.9 | 8.7 | 0.00 | 0.00 | 0.00 | 54 | 1016.9 |
| 20260505214404 | 60 | 247 | 3.5 | 7.0 | 0.00 | 0.00 | 0.00 | 52 | 1016.9 |
| 20260505213901 | 60 | 154 | 1.7 | 5.2 | 0.00 | 0.00 | 0.00 | 49 | 1016.8 |
| 20260505213359 | 61 | 220 | 2.6 | 8.7 | 0.00 | 0.00 | 0.00 | 46 | 1016.7 |
| 20260505212855 | 62 | 303 | 3.5 | 5.2 | 0.00 | 0.00 | 0.00 | 44 | 1016.6 |
| 20260505212352 | 62 | 159 | 0.9 | 4.3 | 0.00 | 0.00 | 0.00 | 45 | 1016.7 |
| 20260505211848 | 61 | 295 | 1.7 | 7.0 | 0.00 | 0.00 | 0.00 | 46 | 1016.8 |
| 20260505211346 | 62 | 338 | 1.7 | 4.3 | 0.00 | 0.00 | 0.00 | 45 | 1017.0 |
| 20260505210842 | 62 | 112 | 0.0 | 4.3 | 0.00 | 0.00 | 0.00 | 45 | 1016.8 |
| 20260505210339 | 63 | 201 | 6.1 | 8.7 | 0.00 | 0.00 | 0.00 | 44 | 1016.9 |
| 20260505205836 | 63 | 50 | 0.0 | 1.7 | 0.00 | 0.00 | 0.00 | 45 | 1016.8 |
| 20260505205334 | 62 | 149 | 1.7 | 2.6 | 0.00 | 0.00 | 0.00 | 47 | 1016.9 |
| 20260505204831 | 61 | 351 | 2.6 | 4.3 | 0.00 | 0.00 | 0.00 | 47 | 1016.9 |
| 20260505204329 | 61 | 335 | 2.6 | 7.0 | 0.00 | 0.00 | 0.00 | 48 | 1016.9 |
| 20260505203826 | 61 | 104 | 1.7 | 4.3 | 0.00 | 0.00 | 0.00 | 49 | 1017.3 |
| 20260505203322 | 61 | 356 | 2.6 | 5.2 | 0.00 | 0.00 | 0.00 | 48 | 1017.3 |
| 20260505202819 | 61 | 31 | 0.0 | 1.7 | 0.00 | 0.00 | 0.00 | 48 | 1017.3 |
| 20260505202315 | 62 | 264 | 2.6 | 5.2 | 0.00 | 0.00 | 0.00 | 47 | 1017.0 |
| 20260505201812 | 61 | 324 | 1.7 | 2.6 | 0.00 | 0.00 | 0.00 | 47 | 1017.3 |
| 20260505201309 | 60 | 1 | 1.7 | 7.0 | 0.00 | 0.00 | 0.00 | 50 | 1017.3 |
| 20260505200807 | 60 | 13 | 2.6 | 7.0 | 0.00 | 0.00 | 0.00 | 50 | 1017.4 |
| 20260505200304 | 59 | 309 | 1.7 | 4.3 | 0.00 | 0.00 | 0.00 | 52 | 1017.4 |
| 20260505195759 | 59 | 284 | 4.3 | 5.2 | 0.00 | 0.00 | 0.00 | 52 | 1017.5 |
| 20260505195257 | 59 | 229 | 4.3 | 7.0 | 0.00 | 0.00 | 0.00 | 52 | 1017.5 |
| 20260505194754 | 59 | 217 | 2.6 | 4.3 | 0.00 | 0.00 | 0.00 | 56 | 1017.5 |
| 20260505194251 | 58 | 291 | 0.9 | 7.0 | 0.00 | 0.00 | 0.00 | 56 | 1017.4 |
| 20260505193746 | 60 | 47 | 0.0 | 1.7 | 0.00 | 0.00 | 0.00 | 55 | 1017.7 |
| 20260505193244 | 59 | 57 | 0.0 | 2.6 | 0.00 | 0.00 | 0.00 | 56 | 1017.7 |
| 20260505192742 | 60 | 68 | 0.9 | 4.3 | 0.00 | 0.00 | 0.00 | 55 | 1017.7 |
| 20260505192240 | 59 | 284 | 3.5 | 5.2 | 0.00 | 0.00 | 0.00 | 59 | 1017.9 |
| 20260505191737 | 57 | 112 | 0.0 | 5.2 | 0.00 | 0.00 | 0.00 | 63 | 1017.9 |
| 20260505191236 | 58 | 223 | 5.2 | 8.7 | 0.00 | 0.00 | 0.00 | 60 | 1018.1 |
| 20260505190731 | 56 | 181 | 2.6 | 4.3 | 0.00 | 0.00 | 0.00 | 69 | 1018.0 |
| 20260505190226 | 56 | 162 | 2.6 | 8.7 | 0.02 | 0.00 | 0.00 | 72 | 1017.9 |
| 20260505185722 | 55 | 209 | 5.2 | 7.0 | 0.02 | 0.00 | 0.00 | 73 | 1018.0 |
| 20260505185219 | 55 | 183 | 4.3 | 5.2 | 0.00 | 0.00 | 0.00 | 73 | 1018.0 |
| 20260505184715 | 55 | 128 | 1.7 | 5.2 | 0.00 | 0.00 | 0.00 | 73 | 1018.2 |
| 20260505184213 | 56 | 201 | 5.2 | 8.7 | 0.00 | 0.00 | 0.00 | 69 | 1018.0 |
| 20260505183709 | 57 | 217 | 2.6 | 7.0 | 0.00 | 0.00 | 0.00 | 61 | 1017.9 |
| 20260505183207 | 59 | 345 | 4.3 | 9.6 | 0.00 | 0.00 | 0.00 | 55 | 1017.9 |
| 20260505182702 | 58 | 191 | 4.3 | 7.0 | 0.00 | 0.00 | 0.00 | 52 | 1017.5 |
| 20260505182200 | 58 | 237 | 2.6 | 11.3 | 0.00 | 0.00 | 0.00 | 58 | 1017.6 |
| 20260505181656 | 59 | 190 | 6.1 | 8.7 | 0.00 | 0.00 | 0.00 | 59 | 1018.0 |
| 20260505181154 | 61 | 254 | 3.5 | 8.7 | 0.00 | 0.00 | 0.00 | 59 | 1017.7 |
| 20260505180650 | 61 | 125 | 4.3 | 7.0 | 0.00 | 0.00 | 0.00 | 43 | 1017.7 |
| 20260505180147 | 62 | 251 | 4.3 | 7.0 | 0.00 | 0.00 | 0.00 | 42 | 1017.7 |
| 20260505175643 | 64 | 154 | 1.7 | 5.2 | 0.00 | 0.00 | 0.00 | 40 | 1017.9 |
| 20260505175139 | 64 | 141 | 1.7 | 2.6 | 0.00 | 0.00 | 0.00 | 39 | 1017.6 |
| 20260505174636 | 64 | 232 | 2.6 | 7.0 | 0.00 | 0.00 | 0.00 | 39 | 1017.6 |
| 20260505174132 | 63 | 10 | 1.7 | 7.0 | 0.00 | 0.00 | 0.00 | 40 | 1017.7 |
| 20260505173624 | 63 | 30 | 0.9 | 5.2 | 0.00 | 0.00 | 0.00 | 40 | 1017.6 |
| 20260505173120 | 62 | 58 | 0.0 | 1.7 | 0.00 | 0.00 | 0.00 | 41 | 1017.4 |
| 20260505172618 | 61 | 95 | 2.6 | 5.2 | 0.00 | 0.00 | 0.00 | 43 | 1017.7 |
| 20260505172114 | 60 | 92 | 4.3 | 5.2 | 0.00 | 0.00 | 0.00 | 43 | 1017.6 |
| 20260505171609 | 61 | 348 | 2.6 | 2.6 | 0.00 | 0.00 | 0.00 | 41 | 1017.6 |
| 20260505171106 | 59 | 25 | 1.7 | 4.3 | 0.00 | 0.00 | 0.00 | 44 | 1017.7 |
| 20260505170603 | 59 | 77 | 1.7 | 2.6 | 0.00 | 0.00 | 0.00 | 46 | 1018.0 |
| 20260505170100 | 60 | 13 | 1.7 | 5.2 | 0.00 | 0.00 | 0.00 | 43 | 1018.3 |
| 20260505165554 | 59 | 76 | 0.0 | 1.7 | 0.00 | 0.00 | 0.00 | 44 | 1018.0 |
| 20260505165051 | 58 | 22 | 2.6 | 4.3 | 0.00 | 0.00 | 0.00 | 44 | 1017.9 |
| 20260505164547 | 57 | 314 | 2.6 | 4.3 | 0.00 | 0.00 | 0.00 | 46 | 1017.7 |
| 20260505164045 | 56 | 299 | 1.7 | 4.3 | 0.00 | 0.00 | 0.00 | 48 | 1017.7 |
| 20260505163543 | 57 | 21 | 0.9 | 7.0 | 0.00 | 0.00 | 0.00 | 47 | 1018.1 |
| 20260505163039 | 56 | 41 | 0.0 | 4.3 | 0.00 | 0.00 | 0.00 | 48 | 1017.9 |
| 20260505162532 | 56 | 19 | 1.7 | 4.3 | 0.00 | 0.00 | 0.00 | 49 | 1018.1 |
| 20260505162030 | 55 | 89 | 0.0 | 1.7 | 0.00 | 0.00 | 0.00 | 51 | 1018.2 |
| 20260505161526 | 54 | 19 | 1.7 | 5.2 | 0.00 | 0.00 | 0.00 | 52 | 1018.3 |
| 20260505161023 | 54 | 12 | 1.7 | 9.6 | 0.00 | 0.00 | 0.00 | 52 | 1018.6 |
| 20260505160521 | 54 | 8 | 4.3 | 5.2 | 0.00 | 0.00 | 0.00 | 55 | 1018.3 |
| 20260505152957 | 55 | 340 | 1.7 | 7.0 | 0.00 | 0.00 | 0.00 | 56 | 1018.7 |
| 20260505152455 | 55 | 29 | 4.3 | 8.7 | 0.00 | 0.00 | 0.00 | 56 | 1018.7 |
| 20260505151950 | 54 | 340 | 4.3 | 7.0 | 0.00 | 0.00 | 0.00 | 56 | 1018.7 |
| 20260505151445 | 54 | 10 | 4.3 | 7.0 | 0.00 | 0.00 | 0.00 | 58 | 1018.9 |
| 20260505150942 | 54 | 344 | 2.6 | 5.2 | 0.00 | 0.00 | 0.00 | 60 | 1018.8 |
| 20260505150434 | 54 | 25 | 3.5 | 8.7 | 0.00 | 0.00 | 0.00 | 60 | 1018.7 |
| 20260505140404 | 54 | 41 | 3.5 | 9.6 | 0.00 | 0.00 | 0.00 | 53 | 1018.9 |
| 20260505124818 | 57 | 28 | 0.0 | 0.0 | 0.00 | 0.00 | 0.00 | 44 | 1017.6 |
| 20260505124314 | 57 | 313 | 0.0 | 1.7 | 0.00 | 0.00 | 0.00 | 43 | 1017.9 |
| 20260505123810 | 57 | 96 | 0.0 | 0.0 | 0.00 | 0.00 | 0.00 | 43 | 1018.0 |
| 20260505123307 | 57 | 202 | 1.7 | 2.6 | 0.00 | 0.00 | 0.00 | 41 | 1017.9 |
| 20260505122803 | 57 | 250 | 0.9 | 1.7 | 0.00 | 0.00 | 0.00 | 41 | 1018.0 |
| 20260505122301 | 57 | 230 | 1.7 | 2.6 | 0.00 | 0.00 | 0.00 | 40 | 1017.9 |
| 20260505121757 | 57 | 238 | 0.9 | 2.6 | 0.00 | 0.00 | 0.00 | 39 | 1018.0 |
| 20260505121254 | 57 | 73 | 0.0 | 0.0 | 0.00 | 0.00 | 0.00 | 40 | 1018.0 |
| 20260505120750 | 57 | 48 | 0.0 | 0.0 | 0.00 | 0.00 | 0.00 | 39 | 1018.1 |
| 20260505120246 | 57 | 48 | 0.0 | 0.0 | 0.00 | 0.00 | 0.00 | 39 | 1017.7 |
| 20260505115744 | 57 | 135 | 0.0 | 0.0 | 0.00 | 0.00 | 0.00 | 38 | 1017.7 |
| 20260505115242 | 57 | 182 | 0.0 | 1.7 | 0.00 | 0.00 | 0.00 | 38 | 1017.7 |
| 20260505114739 | 57 | 353 | 0.0 | 1.7 | 0.00 | 0.00 | 0.00 | 38 | 1017.6 |
| 20260505114235 | 57 | 252 | 0.0 | 0.0 | 0.00 | 0.00 | 0.00 | 38 | 1017.5 |
| 20260505113732 | 57 | 250 | 0.0 | 2.6 | 0.00 | 0.00 | 0.00 | 37 | 1017.5 |
| 20260505113224 | 57 | 204 | 1.7 | 4.3 | 0.00 | 0.00 | 0.00 | 37 | 1017.5 |
| 20260505112720 | 57 | 208 | 0.0 | 0.0 | 0.00 | 0.00 | 0.00 | 37 | 1017.4 |
| 20260505112218 | 57 | 27 | 0.0 | 0.0 | 0.00 | 0.00 | 0.00 | 37 | 1017.5 |
| 20260505111717 | 57 | 13 | 0.0 | 0.0 | 0.00 | 0.00 | 0.00 | 37 | 1017.4 |
| 20260505111214 | 58 | 247 | 0.0 | 1.7 | 0.00 | 0.00 | 0.00 | 36 | 1017.6 |
| 20260505110709 | 58 | 273 | 0.0 | 1.7 | 0.00 | 0.00 | 0.00 | 35 | 1017.9 |
| 20260505110207 | 58 | 149 | 0.9 | 1.7 | 0.00 | 0.00 | 0.00 | 36 | 1017.7 |
| 20260505102143 | 58 | 200 | 0.9 | 2.6 | 0.00 | 0.00 | 0.00 | 35 | 1017.7 |
| 20260505101641 | 57 | 208 | 0.9 | 1.7 | 0.00 | 0.00 | 0.00 | 35 | 1017.7 |
| 20260505101137 | 57 | 208 | 0.0 | 0.0 | 0.00 | 0.00 | 0.00 | 36 | 1017.6 |
| 20260505100633 | 58 | 208 | 0.0 | 0.0 | 0.00 | 0.00 | 0.00 | 35 | 1017.7 |
| 20260505100130 | 58 | 208 | 0.0 | 0.0 | 0.00 | 0.00 | 0.00 | 35 | 1017.6 |
| 20260505095626 | 58 | 208 | 0.0 | 0.0 | 0.00 | 0.00 | 0.00 | 34 | 1017.5 |
| 20260505095124 | 58 | 273 | 0.0 | 1.7 | 0.00 | 0.00 | 0.00 | 34 | 1017.7 |
| 20260505094620 | 58 | 77 | 0.0 | 0.0 | 0.00 | 0.00 | 0.00 | 35 | 1017.5 |
| 20260505094116 | 58 | 68 | 0.0 | 0.0 | 0.00 | 0.00 | 0.00 | 35 | 1017.5 |
| 20260505093613 | 58 | 67 | 0.0 | 0.0 | 0.00 | 0.00 | 0.00 | 34 | 1017.5 |
| 20260505093110 | 59 | 63 | 0.0 | 0.0 | 0.00 | 0.00 | 0.00 | 34 | 1017.4 |
| 20260505092607 | 59 | 63 | 0.0 | 0.0 | 0.00 | 0.00 | 0.00 | 33 | 1017.5 |
| 20260505092106 | 59 | 37 | 0.0 | 2.6 | 0.00 | 0.00 | 0.00 | 32 | 1017.7 |
| 20260505091602 | 60 | 29 | 0.0 | 1.7 | 0.00 | 0.00 | 0.00 | 31 | 1017.7 |
| 20260505091101 | 60 | 20 | 1.7 | 1.7 | 0.00 | 0.00 | 0.00 | 31 | 1017.7 |
| 20260505090558 | 60 | 200 | 0.0 | 1.7 | 0.00 | 0.00 | 0.00 | 32 | 1017.7 |
| 20260505090056 | 60 | 194 | 0.9 | 4.3 | 0.00 | 0.00 | 0.00 | 32 | 1017.7 |
| 20260505085553 | 60 | 227 | 3.5 | 4.3 | 0.00 | 0.00 | 0.00 | 32 | 1017.9 |
| 20260505085051 | 60 | 318 | 1.7 | 4.3 | 0.00 | 0.00 | 0.00 | 32 | 1017.9 |
| 20260505084549 | 60 | 9 | 0.0 | 2.6 | 0.00 | 0.00 | 0.00 | 32 | 1018.0 |
| 20260505084047 | 60 | 332 | 2.6 | 4.3 | 0.00 | 0.00 | 0.00 | 32 | 1018.0 |
| 20260505083544 | 60 | 159 | 0.9 | 5.2 | 0.00 | 0.00 | 0.00 | 32 | 1018.4 |
| 20260505083040 | 60 | 288 | 0.9 | 2.6 | 0.00 | 0.00 | 0.00 | 32 | 1018.6 |
| 20260505082536 | 60 | 307 | 0.0 | 2.6 | 0.00 | 0.00 | 0.00 | 33 | 1018.4 |
| 20260505082033 | 61 | 191 | 0.9 | 2.6 | 0.00 | 0.00 | 0.00 | 32 | 1018.3 |
| 20260505081530 | 61 | 282 | 0.9 | 4.3 | 0.00 | 0.00 | 0.00 | 32 | 1018.3 |
| 20260505081027 | 61 | 354 | 0.0 | 5.2 | 0.00 | 0.00 | 0.00 | 32 | 1018.6 |
| 20260505080523 | 61 | 336 | 3.5 | 4.3 | 0.00 | 0.00 | 0.00 | 32 | 1018.3 |
| 20260505080020 | 61 | 251 | 1.7 | 2.6 | 0.00 | 0.00 | 0.00 | 32 | 1018.4 |
| 20260505075516 | 61 | 283 | 5.2 | 5.2 | 0.00 | 0.00 | 0.00 | 31 | 1018.4 |
| 20260505075013 | 61 | 349 | 0.0 | 1.7 | 0.00 | 0.00 | 0.00 | 32 | 1018.8 |
| 20260505074510 | 62 | 314 | 0.9 | 1.7 | 0.00 | 0.00 | 0.00 | 31 | 1018.7 |
| 20260505074007 | 62 | 329 | 1.7 | 4.3 | 0.00 | 0.00 | 0.00 | 31 | 1018.7 |
| 20260505073504 | 62 | 7 | 1.7 | 4.3 | 0.00 | 0.00 | 0.00 | 31 | 1018.6 |
| 20260505073003 | 62 | 341 | 4.3 | 7.0 | 0.00 | 0.00 | 0.00 | 31 | 1018.4 |
| 20260505072458 | 62 | 227 | 3.5 | 5.2 | 0.00 | 0.00 | 0.00 | 30 | 1018.4 |
| 20260505071954 | 62 | 278 | 5.2 | 9.6 | 0.00 | 0.00 | 0.00 | 30 | 1018.3 |
| 20260505071450 | 62 | 317 | 1.7 | 8.7 | 0.00 | 0.00 | 0.00 | 30 | 1018.1 |
| 20260505070948 | 62 | 214 | 2.6 | 4.3 | 0.00 | 0.00 | 0.00 | 29 | 1018.3 |
| 20260505070445 | 63 | 359 | 3.5 | 7.0 | 0.00 | 0.00 | 0.00 | 29 | 1018.0 |
| 20260505065940 | 63 | 264 | 2.6 | 7.0 | 0.00 | 0.00 | 0.00 | 29 | 1017.6 |
| 20260505065437 | 63 | 239 | 8.7 | 12.2 | 0.00 | 0.00 | 0.00 | 28 | 1017.7 |
| 20260505064934 | 63 | 237 | 9.6 | 11.3 | 0.00 | 0.00 | 0.00 | 28 | 1017.6 |
| 20260505064431 | 63 | 277 | 5.2 | 9.6 | 0.00 | 0.00 | 0.00 | 28 | 1017.9 |
| 20260505063929 | 63 | 219 | 1.7 | 5.2 | 0.00 | 0.00 | 0.00 | 28 | 1018.0 |
| 20260505063425 | 63 | 162 | 2.6 | 5.2 | 0.00 | 0.00 | 0.00 | 27 | 1017.9 |
| 20260505062922 | 64 | 0 | 1.7 | 7.0 | 0.00 | 0.00 | 0.00 | 27 | 1017.6 |
| 20260505062419 | 64 | 178 | 0.9 | 7.0 | 0.00 | 0.00 | 0.00 | 27 | 1017.7 |
| 20260505061916 | 64 | 293 | 6.1 | 7.0 | 0.00 | 0.00 | 0.00 | 26 | 1017.9 |
| 20260505061414 | 64 | 266 | 0.0 | 11.3 | 0.00 | 0.00 | 0.00 | 26 | 1017.7 |
| 20260505060911 | 64 | 225 | 7.0 | 11.3 | 0.00 | 0.00 | 0.00 | 26 | 1017.7 |
| 20260505060408 | 64 | 198 | 5.2 | 12.2 | 0.00 | 0.00 | 0.00 | 26 | 1017.7 |
| 20260505055904 | 64 | 256 | 5.2 | 7.0 | 0.00 | 0.00 | 0.00 | 26 | 1017.9 |
| 20260505055400 | 65 | 217 | 4.3 | 8.7 | 0.00 | 0.00 | 0.00 | 26 | 1017.9 |
| 20260505054857 | 65 | 255 | 2.6 | 7.0 | 0.00 | 0.00 | 0.00 | 25 | 1017.7 |
| 20260505054354 | 65 | 266 | 7.0 | 9.6 | 0.00 | 0.00 | 0.00 | 25 | 1017.6 |
| 20260505053853 | 65 | 236 | 3.5 | 5.2 | 0.00 | 0.00 | 0.00 | 25 | 1017.9 |
| 20260505053350 | 65 | 152 | 2.6 | 8.7 | 0.00 | 0.00 | 0.00 | 25 | 1017.5 |
| 20260505052846 | 65 | 324 | 3.5 | 8.7 | 0.00 | 0.00 | 0.00 | 25 | 1017.6 |
| 20260505052343 | 65 | 250 | 4.3 | 8.7 | 0.00 | 0.00 | 0.00 | 24 | 1017.3 |
| 20260505051840 | 66 | 254 | 7.0 | 8.7 | 0.00 | 0.00 | 0.00 | 24 | 1017.6 |
| 20260505051337 | 66 | 231 | 3.5 | 7.0 | 0.00 | 0.00 | 0.00 | 24 | 1017.5 |
| 20260505050836 | 66 | 169 | 2.6 | 4.3 | 0.00 | 0.00 | 0.00 | 24 | 1017.4 |
| 20260505050334 | 66 | 117 | 2.6 | 7.0 | 0.00 | 0.00 | 0.00 | 24 | 1017.5 |
| 20260505041301 | 67 | 194 | 0.9 | 1.7 | 0.00 | 0.00 | 0.00 | 25 | 1017.4 |
| 20260505040758 | 67 | 150 | 0.9 | 2.6 | 0.00 | 0.00 | 0.00 | 25 | 1017.1 |
| 20260505040256 | 67 | 219 | 1.7 | 2.6 | 0.00 | 0.00 | 0.00 | 24 | 1017.4 |
| 20260505035752 | 67 | 87 | 0.0 | 0.0 | 0.00 | 0.00 | 0.00 | 24 | 1017.5 |
| 20260505035248 | 67 | 48 | 0.0 | 2.6 | 0.00 | 0.00 | 0.00 | 24 | 1017.3 |
| 20260505034745 | 68 | 255 | 2.6 | 2.6 | 0.00 | 0.00 | 0.00 | 23 | 1017.3 |
| 20260505034242 | 68 | 10 | 0.0 | 1.7 | 0.00 | 0.00 | 0.00 | 24 | 1017.3 |
| 20260505033738 | 68 | 329 | 2.6 | 2.6 | 0.00 | 0.00 | 0.00 | 23 | 1017.3 |
| 20260505033236 | 68 | 311 | 0.0 | 4.3 | 0.00 | 0.00 | 0.00 | 23 | 1017.1 |
| 20260505032734 | 68 | 274 | 2.6 | 7.0 | 0.00 | 0.00 | 0.00 | 23 | 1017.1 |
| 20260505032230 | 68 | 19 | 0.9 | 4.3 | 0.00 | 0.00 | 0.00 | 23 | 1016.9 |
| 20260505031728 | 68 | 249 | 4.3 | 5.2 | 0.00 | 0.00 | 0.00 | 23 | 1016.8 |
| 20260505031224 | 69 | 247 | 0.9 | 4.3 | 0.00 | 0.00 | 0.00 | 22 | 1016.9 |
| 20260505030721 | 69 | 207 | 4.3 | 8.7 | 0.00 | 0.00 | 0.00 | 22 | 1016.7 |
| 20260505030217 | 69 | 350 | 2.6 | 7.0 | 0.00 | 0.00 | 0.00 | 22 | 1016.6 |
| 20260505025713 | 69 | 353 | 2.6 | 12.2 | 0.00 | 0.00 | 0.00 | 22 | 1016.7 |
| 20260505025211 | 69 | 322 | 3.5 | 7.0 | 0.00 | 0.00 | 0.00 | 21 | 1016.3 |
| 20260505024709 | 69 | 280 | 3.5 | 5.2 | 0.00 | 0.00 | 0.00 | 21 | 1016.4 |
| 20260505024206 | 70 | 239 | 5.2 | 8.7 | 0.00 | 0.00 | 0.00 | 21 | 1016.4 |
| 20260505023703 | 70 | 132 | 7.8 | 16.5 | 0.00 | 0.00 | 0.00 | 21 | 1016.4 |
| 20260505023200 | 70 | 264 | 6.1 | 8.7 | 0.00 | 0.00 | 0.00 | 21 | 1016.3 |
| 20260505022658 | 70 | 294 | 7.8 | 11.3 | 0.00 | 0.00 | 0.00 | 20 | 1016.3 |
| 20260505022154 | 70 | 76 | 7.0 | 12.2 | 0.00 | 0.00 | 0.00 | 20 | 1016.2 |
| 20260505021651 | 70 | 300 | 4.3 | 11.3 | 0.00 | 0.00 | 0.00 | 20 | 1016.6 |
| 20260505021148 | 71 | 176 | 4.3 | 13.9 | 0.00 | 0.00 | 0.00 | 20 | 1016.2 |
| 20260505020643 | 71 | 210 | 5.2 | 8.7 | 0.00 | 0.00 | 0.00 | 20 | 1016.1 |
| 20260505020139 | 71 | 273 | 4.3 | 8.7 | 0.00 | 0.00 | 0.00 | 20 | 1016.0 |
| 20260505015637 | 71 | 288 | 5.2 | 8.7 | 0.00 | 0.00 | 0.00 | 20 | 1016.0 |
| 20260505015133 | 71 | 210 | 3.5 | 9.6 | 0.00 | 0.00 | 0.00 | 20 | 1016.1 |
| 20260505014630 | 71 | 243 | 3.5 | 8.7 | 0.00 | 0.00 | 0.00 | 20 | 1015.7 |
| 20260505014127 | 71 | 271 | 4.3 | 7.0 | 0.00 | 0.00 | 0.00 | 20 | 1015.8 |
| 20260505013625 | 71 | 31 | 5.2 | 13.9 | 0.00 | 0.00 | 0.00 | 20 | 1015.6 |
| 20260505013122 | 72 | 354 | 6.1 | 13.9 | 0.00 | 0.00 | 0.00 | 20 | 1015.6 |
| 20260505012620 | 72 | 280 | 6.1 | 9.6 | 0.00 | 0.00 | 0.00 | 20 | 1015.6 |
| 20260505012116 | 72 | 301 | 3.5 | 4.3 | 0.00 | 0.00 | 0.00 | 20 | 1015.6 |
| 20260505011612 | 72 | 294 | 3.5 | 11.3 | 0.00 | 0.00 | 0.00 | 20 | 1015.5 |
| 20260505011110 | 72 | 252 | 5.2 | 7.0 | 0.00 | 0.00 | 0.00 | 19 | 1015.5 |
| 20260505010605 | 72 | 173 | 1.7 | 5.2 | 0.00 | 0.00 | 0.00 | 19 | 1015.6 |
| 20260505005558 | 72 | 249 | 2.6 | 7.0 | 0.00 | 0.00 | 0.00 | 19 | 1015.6 |
| 20260505005055 | 72 | 336 | 8.7 | 11.3 | 0.00 | 0.00 | 0.00 | 18 | 1015.5 |
| 20260505004552 | 72 | 258 | 5.2 | 11.3 | 0.00 | 0.00 | 0.00 | 18 | 1015.3 |
| 20260505004049 | 73 | 277 | 7.0 | 11.3 | 0.00 | 0.00 | 0.00 | 18 | 1015.5 |
| 20260505003546 | 73 | 304 | 5.2 | 15.6 | 0.00 | 0.00 | 0.00 | 18 | 1015.6 |
| 20260505003043 | 73 | 167 | 9.6 | 11.3 | 0.00 | 0.00 | 0.00 | 17 | 1015.6 |